| time (UTC) | temp C | wind direction | speed KPH | gust KPH | rain 1hr cm | rain 24hr cm | rain mn cm | humidity % | barometer mb |
| 20260502195515 | 18 | 90 | 4.8 | 6.4 | 0.00 | 0.00 | 0.00 | 54 | 1015.9 |
| 20260502194215 | 18 | 90 | 4.8 | 6.4 | 0.00 | 0.00 | 0.00 | 54 | 1015.9 |
| 20260502192758 | 18 | 90 | 4.8 | 6.4 | 0.00 | 0.00 | 0.00 | 54 | 1015.9 |
| 20260502191450 | 18 | 90 | 4.8 | 6.4 | 0.00 | 0.00 | 0.00 | 54 | 1015.9 |
| 20260502190225 | 22 | 135 | 6.4 | 9.7 | 0.00 | 0.00 | 0.00 | 30 | 1015.1 |
| 20260502184950 | 22 | 135 | 6.4 | 9.7 | 0.00 | 0.00 | 0.00 | 30 | 1015.1 |
| 20260502183625 | 22 | 135 | 6.4 | 9.7 | 0.00 | 0.00 | 0.00 | 30 | 1015.1 |
| 20260502182215 | 23 | 135 | 3.2 | 6.4 | 0.00 | 0.00 | 0.00 | 29 | 1014.9 |
| 20260502180915 | 23 | 135 | 3.2 | 6.4 | 0.00 | 0.00 | 0.00 | 29 | 1014.9 |
| 20260502170130 | 24 | 90 | 3.2 | 8.0 | 0.00 | 0.00 | 0.00 | 27 | 1016.0 |
| 20260502163318 | 24 | 90 | 3.2 | 8.0 | 0.00 | 0.00 | 0.00 | 27 | 1016.0 |
| 20260502161853 | 24 | 90 | 3.2 | 8.0 | 0.00 | 0.00 | 0.00 | 27 | 1016.0 |
| 20260502160623 | 24 | 90 | 3.2 | 8.0 | 0.00 | 0.00 | 0.00 | 27 | 1016.0 |
| 20260502151355 | 25 | 0 | 3.2 | 9.7 | 0.00 | 0.00 | 0.00 | 20 | 1016.9 |
| 20260502150109 | 22 | 90 | 3.2 | 11.3 | 0.00 | 0.00 | 0.00 | 31 | 1019.1 |
| 20260502123230 | 21 | 225 | 4.8 | 9.7 | 0.00 | 0.00 | 0.00 | 40 | 1020.0 |
| 20260502122005 | 21 | 225 | 4.8 | 9.7 | 0.00 | 0.00 | 0.00 | 40 | 1020.0 |
| 20260502120630 | 21 | 225 | 4.8 | 9.7 | 0.00 | 0.00 | 0.00 | 40 | 1020.0 |
| 20260502115335 | 21 | 315 | 4.8 | 12.9 | 0.00 | 0.00 | 0.00 | 43 | 1020.5 |
| 20260502114108 | 21 | 315 | 4.8 | 12.9 | 0.00 | 0.00 | 0.00 | 43 | 1020.5 |
| 20260502112710 | 20 | 270 | 6.4 | 12.9 | 0.00 | 0.00 | 0.00 | 42 | 1021.2 |
| 20260502111350 | 20 | 270 | 6.4 | 12.9 | 0.00 | 0.00 | 0.00 | 42 | 1021.2 |
| 20260502105908 | 20 | 225 | 4.8 | 11.3 | 0.00 | 0.00 | 0.00 | 44 | 1021.4 |
| 20260502104600 | 20 | 225 | 4.8 | 11.3 | 0.00 | 0.00 | 0.00 | 44 | 1021.4 |
| 20260502103235 | 19 | 270 | 3.2 | 8.0 | 0.00 | 0.00 | 0.00 | 48 | 1021.9 |
| 20260502101817 | 19 | 270 | 3.2 | 8.0 | 0.00 | 0.00 | 0.00 | 48 | 1021.9 |
| 20260502100600 | 17 | 225 | 3.2 | 8.0 | 0.00 | 0.00 | 0.00 | 49 | 1022.6 |
| 20260502091245 | 16 | 135 | 3.2 | 6.4 | 0.00 | 0.00 | 0.00 | 47 | 1022.8 |
| 20260502071035 | 12 | 180 | 1.6 | 4.8 | 0.00 | 0.00 | 0.00 | 60 | 1024.1 |
| 20260502065825 | 11 | 225 | 1.6 | 6.4 | 0.00 | 0.00 | 0.00 | 66 | 1024.0 |
| 20260502064508 | 11 | 225 | 1.6 | 6.4 | 0.00 | 0.00 | 0.00 | 66 | 1024.0 |
| 20260502063125 | 8 | 45 | 3.2 | 6.4 | 0.00 | 0.00 | 0.00 | 79 | 1024.6 |
| 20260502061729 | 8 | 45 | 3.2 | 6.4 | 0.00 | 0.00 | 0.00 | 79 | 1024.6 |
| 20260502060425 | 6 | 0 | 3.2 | 6.4 | 0.00 | 0.00 | 0.00 | 85 | 1024.9 |
| 20260502055045 | 6 | 0 | 3.2 | 6.4 | 0.00 | 0.00 | 0.00 | 85 | 1024.9 |
| 20260502053650 | 6 | 0 | 3.2 | 6.4 | 0.00 | 0.00 | 0.00 | 85 | 1024.9 |
| 20260502052245 | 5 | 0 | 3.2 | 6.4 | 0.00 | 0.00 | 0.00 | 88 | 1025.0 |
| 20260502050915 | 5 | 0 | 3.2 | 6.4 | 0.00 | 0.00 | 0.00 | 88 | 1025.0 |
| 20260502045600 | 6 | 0 | 3.2 | 3.2 | 0.00 | 0.00 | 0.00 | 84 | 1024.5 |
| 20260502044200 | 6 | 0 | 3.2 | 3.2 | 0.00 | 0.00 | 0.00 | 84 | 1024.5 |
| 20260502042940 | 6 | 0 | 3.2 | 3.2 | 0.00 | 0.00 | 0.00 | 84 | 1024.5 |
| 20260502041535 | 6 | 0 | 3.2 | 3.2 | 0.00 | 0.00 | 0.00 | 84 | 1024.5 |
| 20260502040230 | 5 | 0 | 0.0 | 6.4 | 0.00 | 0.00 | 0.00 | 85 | 1024.9 |
| 20260502034855 | 5 | 0 | 0.0 | 6.4 | 0.00 | 0.00 | 0.00 | 85 | 1024.9 |
| 20260502033435 | 7 | 0 | 3.2 | 6.4 | 0.00 | 0.00 | 0.00 | 80 | 1024.4 |
| 20260502032110 | 7 | 0 | 3.2 | 6.4 | 0.00 | 0.00 | 0.00 | 80 | 1024.4 |
| 20260502030740 | 7 | 0 | 3.2 | 6.4 | 0.00 | 0.00 | 0.00 | 80 | 1024.4 |
| 20260502025340 | 6 | 315 | 3.2 | 4.8 | 0.00 | 0.00 | 0.00 | 78 | 1024.6 |
| 20260502024040 | 6 | 315 | 3.2 | 4.8 | 0.00 | 0.00 | 0.00 | 78 | 1024.6 |
| 20260502022640 | 7 | 0 | 3.2 | 3.2 | 0.00 | 0.00 | 0.00 | 74 | 1024.3 |
| 20260502021300 | 7 | 0 | 3.2 | 3.2 | 0.00 | 0.00 | 0.00 | 74 | 1024.3 |
| 20260502015905 | 7 | 0 | 3.2 | 6.4 | 0.00 | 0.00 | 0.00 | 76 | 1024.6 |
| 20260502014540 | 7 | 0 | 3.2 | 6.4 | 0.00 | 0.00 | 0.00 | 76 | 1024.6 |
| 20260502013220 | 8 | 315 | 3.2 | 6.4 | 0.00 | 0.00 | 0.00 | 66 | 1024.4 |
| 20260502011950 | 8 | 315 | 3.2 | 6.4 | 0.00 | 0.00 | 0.00 | 66 | 1024.4 |
| 20260502010630 | 8 | 315 | 3.2 | 6.4 | 0.00 | 0.00 | 0.00 | 66 | 1024.4 |
| 20260502005255 | 8 | 315 | 3.2 | 9.7 | 0.00 | 0.00 | 0.00 | 69 | 1024.5 |
| 20260502003823 | 8 | 315 | 3.2 | 9.7 | 0.00 | 0.00 | 0.00 | 69 | 1024.5 |
| 20260502002430 | 8 | 0 | 6.4 | 9.7 | 0.00 | 0.00 | 0.00 | 69 | 1024.4 |
| 20260502001039 | 8 | 0 | 6.4 | 9.7 | 0.00 | 0.00 | 0.00 | 69 | 1024.4 |
| 20260501235645 | 9 | 270 | 4.8 | 9.7 | 0.00 | 0.00 | 0.00 | 63 | 1024.2 |
| 20260501234155 | 9 | 270 | 4.8 | 9.7 | 0.00 | 0.00 | 0.00 | 63 | 1024.2 |
| 20260501232840 | 12 | 270 | 6.4 | 9.7 | 0.00 | 0.00 | 0.00 | 51 | 1023.6 |
| 20260501231616 | 12 | 270 | 6.4 | 9.7 | 0.00 | 0.00 | 0.00 | 51 | 1023.6 |
| 20260501230301 | 12 | 270 | 6.4 | 9.7 | 0.00 | 0.00 | 0.00 | 51 | 1023.6 |
| 20260501224955 | 12 | 270 | 6.4 | 9.7 | 0.00 | 0.00 | 0.00 | 51 | 1023.6 |
| 20260501223525 | 13 | 90 | 3.2 | 6.4 | 0.00 | 0.00 | 0.00 | 47 | 1023.5 |
| 20260501222215 | 13 | 90 | 3.2 | 6.4 | 0.00 | 0.00 | 0.00 | 47 | 1023.5 |
| 20260501220835 | 13 | 90 | 3.2 | 6.4 | 0.00 | 0.00 | 0.00 | 47 | 1023.5 |
| 20260501215410 | 14 | 90 | 6.4 | 22.5 | 0.00 | 0.00 | 0.00 | 44 | 1023.3 |
| 20260501214035 | 14 | 90 | 6.4 | 22.5 | 0.00 | 0.00 | 0.00 | 44 | 1023.3 |
| 20260501212655 | 15 | 45 | 9.7 | 19.3 | 0.00 | 0.00 | 0.00 | 40 | 1023.0 |
| 20260501211319 | 15 | 45 | 9.7 | 19.3 | 0.00 | 0.00 | 0.00 | 40 | 1023.0 |
| 20260501205943 | 16 | 45 | 11.3 | 20.9 | 0.00 | 0.00 | 0.00 | 40 | 1022.7 |
| 20260501204559 | 16 | 45 | 11.3 | 20.9 | 0.00 | 0.00 | 0.00 | 40 | 1022.7 |
| 20260501203219 | 15 | 45 | 11.3 | 17.7 | 0.00 | 0.00 | 0.00 | 45 | 1022.7 |
| 20260501201859 | 15 | 45 | 11.3 | 17.7 | 0.00 | 0.00 | 0.00 | 45 | 1022.7 |
| 20260501200514 | 13 | 45 | 4.8 | 6.4 | 0.00 | 0.00 | 0.00 | 55 | 1022.8 |